Regional Weather Roundup
Issued by NWS

Home | Current Version | Previous Version | Graphics & Text | Print | Product List | Glossary On
Versions: 1 2 3 4 5 6 7 8 9 10 11 12 13 14 15 16 17 18 19 20 21 22 23 24 25 26 27 28 29 30 31 32 33 34 35 36 37 38 39 40 41 42 43 44 45 46 47 48 49 50
000
ASUS43 KDMX 270507
RWRIA

WEATHER ROUNDUP FOR IOWA
NATIONAL WEATHER SERVICE DES MOINES IA
1200 AM CDT SUN JUL 27 2014

NOTE: "FAIR" INDICATES FEW OR NO CLOUDS BELOW 12,000 FEET WITH NO
SIGNIFICANT WEATHER AND/OR OBSTRUCTIONS TO VISIBILITY.

* - THESE STATIONS ARE NOT NWS STATIONS...THUS NOT UNDER NWS
QUALITY CONTROL.  THEY ALSO DO NOT REPORT WEATHER SUCH
AS PRECIPITATION OR FOG.

IAZ001>003-012>014-020>022-031>034-043>046-270600-
   NORTHWEST IOWA

CITY           SKY/WX    TMP DP  RH WIND       PRES   REMARKS
CARROLL *      MOCLDY    66  64  94 W5        29.92S
CHEROKEE *     CLEAR     68  68 100 CALM      29.94S
DENISON *      CLEAR     70  70 100 CALM      29.92S
LE MARS *      CLEAR     68  66  94 CALM      29.95S
ORANGE CITY *  CLEAR     68  64  88 W5        29.95S
SHELDON *      CLEAR     68  64  88 W8        29.93S
SIOUX CITY     CLEAR     71  68  90 W5        29.95R
SPENCER        CLEAR     67  64  90 W8        29.92F
STORM LAKE *   PTCLDY    68  68 100 W9        29.95R
$$

IAZ055>058-069>071-079>083-090>094-270600-
   SOUTHWEST IOWA

CITY           SKY/WX    TMP DP  RH WIND       PRES   REMARKS
ATLANTIC *     PTCLDY    72  70  94 N5        29.91R
AUDUBON *      CLEAR     73  70  88 NW3       29.94R
CLARINDA *     CLEAR     77  75  94 N6        29.91R
COUNCIL BLFS * CLEAR     73  73 100 NW5       29.92S
CRESTON *      CLEAR     73  72  94 N6        29.90S
HARLAN  *      CLEAR     72  70  94 CALM      29.96R
LAMONI         MOCLDY    76  74  93 NE3       29.88S
RED OAK *      CLEAR     73  72  94 N5        29.91R
SHENANDOAH *   PTCLDY    75  73  94 N6        29.91R
$$

IAZ047>049-059>061-072>074-084-270600-
   CENTRAL IOWA

CITY           SKY/WX    TMP DP  RH WIND       PRES   REMARKS
AMES           PTCLDY    70  69  97 NW5       29.88R
ANKENY *       CLEAR     68  68 100 CALM      29.87S FOG
CHARITON *     CLOUDY    75  73  94 CALM      29.88S
DES MOINES     CLEAR     75  70  84 CALM      29.87R
GRINNELL*      CLEAR     68  66  94 CALM      29.88R FOG
KNOXVILLE *    PTCLDY    75  72  88 CALM      29.86S
MARSHALLTOWN   CLEAR     72  70  93 W5        29.87R
PELLA *        PTCLDY    72  71  96 CALM      29.88S FOG
PERRY *          N/A     70  68  94 NW3       29.89S FOG
$$

IAZ004>006-015-016-023>025-035-036-270600-
   NORTH CENTRAL IOWA

CITY           SKY/WX    TMP DP  RH WIND       PRES   REMARKS
ALGONA *       CLEAR     68  66  94 SW6       29.91S
CLARION *      CLEAR     66  66 100 CALM      29.90R
ESTHERVILLE    CLEAR     66  64  93 SW6       29.90F
FORT DODGE *   CLEAR     66  66 100 CALM      29.91R
MASON CITY     CLEAR     68  65  90 W8        29.90S
FOREST CITY *  CLEAR     66  64  94 CALM      29.89S
IOWA FALLS *     N/A     70  68  94 W3        29.89S FOG
$$

IAZ007>011-017>019-026>030-037>042-050>054-066-270600-
   NORTHEAST IOWA

CITY           SKY/WX    TMP DP  RH WIND       PRES   REMARKS
CEDAR RAPIDS   CLOUDY    72  69  90 NW3       29.85S FOG
CHARLES CITY * CLEAR     70  70 100 W3        29.87F FOG
CLINTON *        N/A     68  66  94 W6        29.87S VSB 1/4
DECORAH *      CLEAR     70  68  94 CALM      29.85S
DUBUQUE        PTCLDY    73  68  84 N9        29.84F
MONTICELLO *   CLEAR     68  68 100 S3        29.84F FOG
OELWEIN *      CLEAR     68  66  94 W5        29.86F
WATERLOO       CLEAR     68  66  93 CALM      29.84F
$$

IAZ064-065-067-068-078-270600-
   EAST CENTRAL IOWA

CITY           SKY/WX    TMP DP  RH WIND       PRES   REMARKS
DAVENPORT      FOG       65  64  97 CALM      29.85F VSB<1/4
IOWA CITY      CLEAR     68  68 100 CALM      29.86S FOG
MT. PLEASANT * CLOUDY    73  72  94 CALM      29.86R FOG
MUSCATINE *    CLEAR     70  68  94 CALM      29.84S FOG
QUAD CITIES    PTCLDY    68  66  94 CALM      29.83F FOG
$$

IAZ062-063-075>077-085>089-095>099-270600-
   SOUTHEAST IOWA

CITY           SKY/WX    TMP DP  RH WIND       PRES   REMARKS
BURLINGTON     FOG       72  72 100 CALM      29.85R VSB 1/4
FAIRFIELD *    CLOUDY    73  72  94 CALM      29.86S
FORT MADISON * FOG       73  73 100 CALM      29.86S VSB 0
KEOKUK *       CLOUDY    72  72 100 CALM      29.85S
OSKALOOSA *      N/A     72  72 100 CALM      29.87R
CENTERVILLE *  MOCLDY    73  73 100 CALM      29.88S FOG
OTTUMWA        CLOUDY    76  73  91 N3        29.86R
WASHINGTON *   CLOUDY    73  72  94 CALM      29.86R FOG
$$

ABBREVIATIONS USED IN REMARKS
   TC - TEMPERATURES IN CELSIUS
  WCI - WIND CHILL INDEX
   HX - HEAT INDEX
  VSB - VISIBILITY
$$



USA.gov is the U.S. government's official web portal to all federal, state and local government web resources and services.